Time,TemperatureF,DewpointF,PressureIn,WindDirection,WindDirectionDegrees,WindSpeedMPH,WindSpeedGustMPH,Humidity,HourlyPrecipIn,Conditions,Clouds,dailyrainin,SoftwareType,DateUTC
2013-04-18 00:01:00,73.7,66.3,30.11,SE,135,0.6,1.4,76,0.00,,,0.00,JAVA,2013-04-18 04:01:00,
2013-04-18 00:02:00,73.7,66.3,30.11,ENE,67,0.6,1.4,76,0.00,,,0.00,JAVA,2013-04-18 04:02:00,
2013-04-18 00:04:00,73.7,66.3,30.11,NE,45,0.8,1.6,77,0.00,,,0.00,JAVA,2013-04-18 04:04:00,
2013-04-18 00:08:00,73.7,66.2,30.10,SE,135,1.2,2.3,77,0.00,,,0.00,JAVA,2013-04-18 04:08:00,
2013-04-18 00:13:00,73.9,66.2,30.11,WSW,247,0.4,1.5,77,0.00,,,0.00,JAVA,2013-04-18 04:13:00,
2013-04-18 00:19:00,73.9,66.2,30.10,ESE,112,0.6,2.9,77,0.00,,,0.00,JAVA,2013-04-18 04:19:00,
2013-04-18 00:24:00,73.9,66.2,30.11,East,90,0.6,2.3,77,0.00,,,0.00,JAVA,2013-04-18 04:24:00,
2013-04-18 00:29:00,73.9,66.2,30.11,East,90,0.5,2.6,77,0.00,,,0.00,JAVA,2013-04-18 04:29:00,
2013-04-18 00:34:00,74.0,66.2,30.10,SE,135,0.2,1.2,78,0.00,,,0.00,JAVA,2013-04-18 04:34:00,
2013-04-18 00:39:00,73.9,66.3,30.10,ESE,112,0.3,2.1,78,0.00,,,0.00,JAVA,2013-04-18 04:39:00,
2013-04-18 00:45:00,73.7,66.4,30.10,ESE,112,0.6,1.5,78,0.00,,,0.00,JAVA,2013-04-18 04:45:00,
2013-04-18 00:50:00,73.7,66.4,30.10,ESE,112,1.4,3.1,78,0.00,,,0.00,JAVA,2013-04-18 04:50:00,
2013-04-18 00:55:00,73.6,66.5,30.09,SE,135,0.8,3.3,78,0.00,,,0.00,JAVA,2013-04-18 04:55:00,
2013-04-18 01:00:00,73.6,66.6,30.09,East,90,1.5,3.3,78,0.00,,,0.00,JAVA,2013-04-18 05:00:00,
2013-04-18 01:05:00,73.6,66.6,30.10,SE,135,0.3,1.0,78,0.00,,,0.00,JAVA,2013-04-18 05:05:00,
2013-04-18 01:10:00,73.6,66.6,30.09,East,90,0.7,2.1,78,0.00,,,0.00,JAVA,2013-04-18 05:10:00,
2013-04-18 01:15:00,73.5,66.6,30.09,SE,135,0.4,1.3,78,0.00,,,0.00,JAVA,2013-04-18 05:15:00,
2013-04-18 01:21:00,73.4,66.5,30.08,ESE,112,0.7,1.5,77,0.00,,,0.00,JAVA,2013-04-18 05:21:00,
2013-04-18 01:26:00,73.5,66.5,30.08,ENE,67,0.8,1.5,77,0.00,,,0.00,JAVA,2013-04-18 05:26:00,
2013-04-18 01:31:00,73.6,66.4,30.08,SE,135,0.6,3.6,77,0.00,,,0.00,JAVA,2013-04-18 05:31:00,
2013-04-18 01:36:00,73.6,66.3,30.07,SE,135,1.3,3.3,77,0.00,,,0.00,JAVA,2013-04-18 05:36:00,
2013-04-18 01:41:00,73.7,66.3,30.08,WNW,292,0.9,2.7,78,0.00,,,0.00,JAVA,2013-04-18 05:41:00,
2013-04-18 01:46:00,73.7,66.3,30.08,East,90,0.9,1.8,78,0.00,,,0.00,JAVA,2013-04-18 05:46:00,
2013-04-18 01:51:00,73.7,66.3,30.08,ESE,112,0.8,1.7,78,0.00,,,0.00,JAVA,2013-04-18 05:51:00,
2013-04-18 01:56:00,73.6,66.4,30.07,ENE,67,1.1,2.7,79,0.00,,,0.00,JAVA,2013-04-18 05:56:00,
2013-04-18 02:01:00,73.5,66.5,30.07,East,90,0.6,1.5,79,0.00,,,0.00,JAVA,2013-04-18 06:01:00,
2013-04-18 02:07:00,73.5,66.5,30.06,NE,45,0.7,1.8,79,0.00,,,0.00,JAVA,2013-04-18 06:07:00,
2013-04-18 02:12:00,73.5,66.6,30.06,SE,135,1.3,2.7,79,0.00,,,0.00,JAVA,2013-04-18 06:12:00,
2013-04-18 02:17:00,73.5,66.7,30.06,ESE,112,0.9,2.3,79,0.00,,,0.00,JAVA,2013-04-18 06:17:00,
2013-04-18 02:22:00,73.5,66.8,30.06,North,0,1.4,3.4,80,0.00,,,0.00,JAVA,2013-04-18 06:22:00,
2013-04-18 02:27:00,73.6,66.8,30.05,NE,45,0.5,1.4,80,0.00,,,0.00,JAVA,2013-04-18 06:27:00,
2013-04-18 02:32:00,73.5,66.9,30.05,ESE,112,0.9,1.9,80,0.00,,,0.00,JAVA,2013-04-18 06:32:00,
2013-04-18 02:37:00,73.5,66.9,30.05,East,90,0.7,1.8,80,0.00,,,0.00,JAVA,2013-04-18 06:37:00,
2013-04-18 02:42:00,73.5,66.9,30.05,SE,135,1.4,3.2,80,0.00,,,0.00,JAVA,2013-04-18 06:42:00,
2013-04-18 02:47:00,73.3,67.0,30.05,ESE,112,1.6,3.6,80,0.00,,,0.00,JAVA,2013-04-18 06:47:00,
2013-04-18 02:53:00,73.3,67.0,30.05,East,90,2.2,3.3,80,0.00,,,0.00,JAVA,2013-04-18 06:53:00,
2013-04-18 02:58:00,73.4,67.0,30.05,SE,135,1.6,2.9,80,0.00,,,0.00,JAVA,2013-04-18 06:58:00,
2013-04-18 03:03:00,73.4,66.9,30.05,NNE,22,2.3,3.8,80,0.00,,,0.00,JAVA,2013-04-18 07:03:00,
2013-04-18 03:08:00,73.4,66.9,30.04,ESE,112,0.4,2.4,79,0.00,,,0.00,JAVA,2013-04-18 07:08:00,
2013-04-18 03:13:00,73.3,66.9,30.04,SE,135,0.5,3.0,79,0.00,,,0.00,JAVA,2013-04-18 07:13:00,
2013-04-18 03:18:00,73.3,66.9,30.04,ESE,112,0.0,0.3,79,0.00,,,0.00,JAVA,2013-04-18 07:18:00,
2013-04-18 03:23:00,73.3,66.9,30.05,ESE,112,0.1,0.6,79,0.00,,,0.00,JAVA,2013-04-18 07:23:00,
2013-04-18 03:28:00,73.3,66.8,30.05,ESE,112,0.1,0.5,79,0.00,,,0.00,JAVA,2013-04-18 07:28:00,
2013-04-18 03:34:00,73.3,66.8,30.05,ENE,67,0.2,0.5,80,0.00,,,0.00,JAVA,2013-04-18 07:34:00,
2013-04-18 03:39:00,73.3,66.8,30.05,ENE,67,0.1,0.7,80,0.00,,,0.00,JAVA,2013-04-18 07:39:00,
2013-04-18 03:44:00,73.2,66.8,30.05,SE,135,0.0,0.5,80,0.00,,,0.00,JAVA,2013-04-18 07:44:00,
2013-04-18 03:49:00,73.1,66.8,30.05,ESE,112,0.0,0.1,80,0.00,,,0.00,JAVA,2013-04-18 07:49:00,
2013-04-18 03:54:00,73.1,66.8,30.05,ENE,67,0.0,0.0,81,0.00,,,0.00,JAVA,2013-04-18 07:54:00,
2013-04-18 03:59:00,72.9,66.8,30.05,East,90,0.1,0.1,81,0.00,,,0.00,JAVA,2013-04-18 07:59:00,
2013-04-18 04:04:00,72.9,66.8,30.05,ESE,112,0.0,0.0,81,0.00,,,0.00,JAVA,2013-04-18 08:04:00,
2013-04-18 04:09:00,72.9,66.9,30.05,East,90,0.2,1.1,81,0.00,,,0.00,JAVA,2013-04-18 08:09:00,
2013-04-18 04:14:00,72.9,66.9,30.05,SE,135,0.3,1.1,81,0.00,,,0.00,JAVA,2013-04-18 08:14:00,
2013-04-18 04:19:00,72.7,66.9,30.04,SE,135,0.2,1.5,81,0.00,,,0.00,JAVA,2013-04-18 08:19:00,
2013-04-18 04:25:00,72.7,66.9,30.05,East,90,0.5,3.1,81,0.00,,,0.00,JAVA,2013-04-18 08:25:00,
2013-04-18 04:30:00,72.6,66.9,30.05,SE,135,0.0,0.1,81,0.00,,,0.00,JAVA,2013-04-18 08:30:00,
2013-04-18 04:35:00,72.6,66.9,30.05,SSE,157,0.1,0.4,81,0.00,,,0.00,JAVA,2013-04-18 08:35:00,
2013-04-18 04:40:00,72.7,66.9,30.05,East,90,0.0,0.5,82,0.00,,,0.00,JAVA,2013-04-18 08:40:00,
2013-04-18 04:45:00,72.9,66.9,30.05,SE,135,0.4,2.3,82,0.00,,,0.00,JAVA,2013-04-18 08:45:00,
2013-04-18 04:50:00,73.1,66.9,30.05,SE,135,0.5,2.1,82,0.00,,,0.00,JAVA,2013-04-18 08:50:00,
2013-04-18 04:55:00,72.9,66.9,30.05,SE,135,0.1,0.7,81,0.00,,,0.00,JAVA,2013-04-18 08:55:00,
2013-04-18 05:00:00,72.9,66.9,30.04,SE,135,0.1,0.6,81,0.00,,,0.00,JAVA,2013-04-18 09:00:00,
2013-04-18 05:05:00,72.8,66.9,30.05,East,90,0.0,0.0,81,0.00,,,0.00,JAVA,2013-04-18 09:05:00,
2013-04-18 05:11:00,72.5,66.9,30.05,East,90,0.0,0.0,81,0.00,,,0.00,JAVA,2013-04-18 09:11:00,
2013-04-18 05:16:00,72.2,66.9,30.05,NW,315,0.0,0.0,81,0.00,,,0.00,JAVA,2013-04-18 09:16:00,
2013-04-18 05:21:00,71.6,66.8,30.05,SE,135,0.0,0.0,81,0.00,,,0.00,JAVA,2013-04-18 09:21:00,
2013-04-18 05:26:00,71.0,66.6,30.05,South,180,0.0,0.0,81,0.00,,,0.00,JAVA,2013-04-18 09:26:00,
2013-04-18 05:31:00,70.7,66.4,30.05,ESE,112,0.0,0.0,81,0.00,,,0.00,JAVA,2013-04-18 09:31:00,
2013-04-18 05:37:00,70.6,66.1,30.05,SE,135,0.0,0.0,81,0.00,,,0.00,JAVA,2013-04-18 09:37:00,
2013-04-18 05:42:00,70.4,65.8,30.05,ESE,112,0.0,0.0,81,0.00,,,0.00,JAVA,2013-04-18 09:42:00,
2013-04-18 05:47:00,70.5,65.5,30.05,SE,135,0.0,0.0,81,0.00,,,0.00,JAVA,2013-04-18 09:47:00,
2013-04-18 05:53:00,70.5,65.2,30.05,East,90,0.1,0.5,82,0.00,,,0.00,JAVA,2013-04-18 09:53:00,
2013-04-18 05:58:00,70.8,65.0,30.05,ENE,67,0.2,1.0,82,0.00,,,0.00,JAVA,2013-04-18 09:58:00,
2013-04-18 06:03:00,70.9,64.9,30.05,SSW,202,0.0,0.0,83,0.00,,,0.00,JAVA,2013-04-18 10:03:00,
2013-04-18 06:08:00,70.7,64.9,30.05,NE,45,0.0,0.0,83,0.00,,,0.00,JAVA,2013-04-18 10:08:00,
2013-04-18 06:13:00,70.5,65.0,30.05,ESE,112,0.0,0.0,84,0.00,,,0.00,JAVA,2013-04-18 10:13:00,
2013-04-18 06:18:00,70.4,65.1,30.05,East,90,0.0,0.0,84,0.00,,,0.00,JAVA,2013-04-18 10:18:00,
2013-04-18 06:23:00,70.4,65.2,30.06,NW,315,0.0,0.0,85,0.00,,,0.00,JAVA,2013-04-18 10:23:00,
2013-04-18 06:28:00,70.1,65.3,30.06,NE,45,0.0,0.0,85,0.00,,,0.00,JAVA,2013-04-18 10:28:00,
2013-04-18 06:33:00,70.0,65.4,30.06,East,90,0.0,0.0,85,0.00,,,0.00,JAVA,2013-04-18 10:33:00,
2013-04-18 06:38:00,69.9,65.5,30.06,NW,315,0.0,0.0,85,0.00,,,0.00,JAVA,2013-04-18 10:38:00,
2013-04-18 06:44:00,69.6,65.5,30.07,East,90,0.0,0.0,85,0.00,,,0.00,JAVA,2013-04-18 10:44:00,
2013-04-18 06:49:00,69.4,65.4,30.07,North,0,0.0,0.0,85,0.00,,,0.00,JAVA,2013-04-18 10:49:00,
2013-04-18 06:54:00,69.1,65.3,30.07,NE,45,0.0,0.0,85,0.00,,,0.00,JAVA,2013-04-18 10:54:00,
2013-04-18 06:59:00,68.9,65.2,30.07,NE,45,0.0,0.0,85,0.00,,,0.00,JAVA,2013-04-18 10:59:00,
2013-04-18 07:04:00,68.7,65.0,30.06,NE,45,0.0,0.0,85,0.00,,,0.00,JAVA,2013-04-18 11:04:00,
2013-04-18 07:09:00,68.4,64.8,30.07,NE,45,0.0,0.0,85,0.00,,,0.00,JAVA,2013-04-18 11:09:00,
2013-04-18 07:14:00,68.2,64.6,30.07,NE,45,0.0,0.0,85,0.00,,,0.00,JAVA,2013-04-18 11:14:00,
2013-04-18 07:19:00,68.1,64.4,30.08,NE,45,0.0,0.0,85,0.00,,,0.00,JAVA,2013-04-18 11:19:00,
2013-04-18 07:24:00,68.0,64.2,30.08,NE,45,0.0,0.0,85,0.00,,,0.00,JAVA,2013-04-18 11:24:00,
2013-04-18 07:29:00,67.9,64.0,30.08,NE,45,0.0,0.0,86,0.00,,,0.00,JAVA,2013-04-18 11:29:00,
2013-04-18 07:34:00,68.0,63.9,30.08,NE,45,0.0,0.0,86,0.00,,,0.00,JAVA,2013-04-18 11:34:00,
2013-04-18 07:40:00,68.1,63.8,30.08,East,90,0.0,0.0,86,0.00,,,0.00,JAVA,2013-04-18 11:40:00,
2013-04-18 07:45:00,68.4,63.8,30.08,NE,45,0.0,0.0,86,0.00,,,0.00,JAVA,2013-04-18 11:45:00,
2013-04-18 07:50:00,69.0,63.8,30.09,North,0,0.0,0.0,86,0.00,,,0.00,JAVA,2013-04-18 11:50:00,
2013-04-18 07:55:00,69.8,64.0,30.10,West,270,0.0,0.0,87,0.00,,,0.00,JAVA,2013-04-18 11:55:00,
2013-04-18 08:00:00,70.9,64.3,30.09,ESE,112,0.0,0.0,87,0.00,,,0.00,JAVA,2013-04-18 12:00:00,
2013-04-18 08:05:00,71.9,64.8,30.09,East,90,0.0,0.0,88,0.00,,,0.00,JAVA,2013-04-18 12:05:00,
2013-04-18 08:10:00,72.4,65.3,30.08,ESE,112,0.4,2.0,88,0.00,,,0.00,JAVA,2013-04-18 12:10:00,
2013-04-18 08:15:00,72.7,66.0,30.09,SE,135,0.4,1.7,88,0.00,,,0.00,JAVA,2013-04-18 12:15:00,
2013-04-18 08:20:00,73.4,66.6,30.09,East,90,0.2,0.8,88,0.00,,,0.00,JAVA,2013-04-18 12:20:00,
2013-04-18 08:26:00,74.2,67.3,30.09,East,90,0.0,0.0,87,0.00,,,0.00,JAVA,2013-04-18 12:26:00,
2013-04-18 08:31:00,75.0,68.0,30.09,SE,135,0.0,0.1,86,0.00,,,0.00,JAVA,2013-04-18 12:31:00,
2013-04-18 08:36:00,75.4,68.7,30.09,ESE,112,0.4,2.1,85,0.00,,,0.00,JAVA,2013-04-18 12:36:00,
2013-04-18 08:41:00,76.1,69.3,30.09,ESE,112,0.1,0.3,84,0.00,,,0.00,JAVA,2013-04-18 12:41:00,
2013-04-18 08:47:00,76.7,69.7,30.10,ESE,112,1.0,2.5,82,0.00,,,0.00,JAVA,2013-04-18 12:47:00,
2013-04-18 08:52:00,76.8,70.0,30.10,ESE,112,1.6,3.7,80,0.00,,,0.00,JAVA,2013-04-18 12:52:00,
2013-04-18 08:57:00,76.9,70.1,30.09,East,90,0.9,2.3,78,0.00,,,0.00,JAVA,2013-04-18 12:57:00,
2013-04-18 09:02:00,77.3,70.2,30.09,ESE,112,0.1,0.2,76,0.00,,,0.00,JAVA,2013-04-18 13:02:00,
2013-04-18 09:07:00,77.0,70.1,30.09,ESE,112,0.0,1.0,75,0.00,,,0.00,JAVA,2013-04-18 13:07:00,
2013-04-18 09:12:00,76.9,69.9,30.09,East,90,0.8,2.0,74,0.00,,,0.00,JAVA,2013-04-18 13:12:00,
2013-04-18 09:17:00,77.4,69.6,30.09,NE,45,0.2,2.0,73,0.00,,,0.00,JAVA,2013-04-18 13:17:00,
2013-04-18 09:22:00,78.1,69.3,30.10,SSE,157,0.9,1.4,72,0.00,,,0.00,JAVA,2013-04-18 13:22:00,
2013-04-18 09:27:00,78.2,69.0,30.09,NNE,22,0.0,0.4,71,0.00,,,0.00,JAVA,2013-04-18 13:27:00,
2013-04-18 09:32:00,78.4,68.8,30.10,East,90,0.6,2.5,71,0.00,,,0.00,JAVA,2013-04-18 13:32:00,
2013-04-18 09:38:00,77.8,68.6,30.10,ENE,67,0.0,0.2,71,0.00,,,0.00,JAVA,2013-04-18 13:38:00,
2013-04-18 09:43:00,77.0,68.3,30.10,East,90,0.0,0.2,70,0.00,,,0.00,JAVA,2013-04-18 13:43:00,
2013-04-18 09:48:00,76.3,68.0,30.10,East,90,0.5,1.4,71,0.00,,,0.00,JAVA,2013-04-18 13:48:00,
2013-04-18 09:53:00,76.2,67.7,30.11,East,90,0.1,0.3,71,0.00,,,0.00,JAVA,2013-04-18 13:53:00,
2013-04-18 09:58:00,76.7,67.5,30.10,ESE,112,0.7,3.3,71,0.00,,,0.00,JAVA,2013-04-18 13:58:00,
2013-04-18 10:04:00,77.4,67.4,30.10,East,90,0.6,1.7,71,0.00,,,0.00,JAVA,2013-04-18 14:04:00,
2013-04-18 10:09:00,78.5,67.3,30.11,East,90,0.6,2.5,71,0.00,,,0.00,JAVA,2013-04-18 14:09:00,
2013-04-18 10:14:00,78.9,67.4,30.11,East,90,1.4,3.9,72,0.00,,,0.00,JAVA,2013-04-18 14:14:00,
2013-04-18 10:19:00,79.0,67.5,30.11,SE,135,1.2,4.0,72,0.00,,,0.00,JAVA,2013-04-18 14:19:00,
2013-04-18 10:24:00,79.5,67.7,30.11,East,90,0.7,2.0,72,0.00,,,0.00,JAVA,2013-04-18 14:24:00,
2013-04-18 10:29:00,79.9,68.0,30.11,East,90,0.0,0.2,71,0.00,,,0.00,JAVA,2013-04-18 14:29:00,
2013-04-18 10:34:00,80.5,68.5,30.11,ESE,112,0.7,1.5,71,0.00,,,0.00,JAVA,2013-04-18 14:34:00,
2013-04-18 10:39:00,79.8,69.0,30.11,SE,135,3.0,4.8,70,0.00,,,0.00,JAVA,2013-04-18 14:39:00,
2013-04-18 10:44:00,79.0,69.2,30.11,East,90,2.4,4.7,69,0.00,,,0.00,JAVA,2013-04-18 14:44:00,
2013-04-18 10:49:00,78.9,69.3,30.11,East,90,2.6,3.9,69,0.00,,,0.00,JAVA,2013-04-18 14:49:00,
2013-04-18 10:54:00,79.3,69.3,30.11,ESE,112,1.9,3.2,69,0.00,,,0.00,JAVA,2013-04-18 14:54:00,
2013-04-18 11:00:00,79.4,69.2,30.10,SE,135,2.3,5.7,69,0.00,,,0.00,JAVA,2013-04-18 15:00:00,
2013-04-18 11:05:00,79.8,69.1,30.10,East,90,1.0,3.0,69,0.00,,,0.00,JAVA,2013-04-18 15:05:00,
2013-04-18 11:10:00,80.3,69.0,30.10,SE,135,1.4,4.3,69,0.00,,,0.00,JAVA,2013-04-18 15:10:00,
2013-04-18 11:15:00,80.6,69.0,30.10,SE,135,1.8,5.0,69,0.00,,,0.00,JAVA,2013-04-18 15:15:00,
2013-04-18 11:20:00,80.4,68.9,30.10,East,90,2.3,4.4,69,0.00,,,0.00,JAVA,2013-04-18 15:20:00,
2013-04-18 11:25:00,80.7,68.9,30.10,SSW,202,1.0,3.5,69,0.00,,,0.00,JAVA,2013-04-18 15:25:00,
2013-04-18 11:30:00,80.9,69.1,30.10,East,90,1.3,3.5,69,0.00,,,0.00,JAVA,2013-04-18 15:30:00,
2013-04-18 11:35:00,80.7,69.3,30.10,SSE,157,0.6,2.2,69,0.00,,,0.00,JAVA,2013-04-18 15:35:00,
2013-04-18 11:40:00,80.8,69.5,30.09,NE,45,0.6,1.6,69,0.00,,,0.00,JAVA,2013-04-18 15:40:00,
2013-04-18 11:45:00,81.2,69.7,30.09,East,90,2.1,4.9,69,0.00,,,0.00,JAVA,2013-04-18 15:45:00,
2013-04-18 11:51:00,80.7,69.9,30.09,North,0,2.3,4.1,69,0.00,,,0.00,JAVA,2013-04-18 15:51:00,
2013-04-18 11:56:00,81.2,69.9,30.09,West,270,1.0,3.0,69,0.00,,,0.00,JAVA,2013-04-18 15:56:00,
2013-04-18 12:01:00,81.3,70.0,30.09,East,90,1.2,3.8,69,0.00,,,0.00,JAVA,2013-04-18 16:01:00,
2013-04-18 12:06:00,80.9,70.0,30.09,East,90,1.4,2.8,69,0.00,,,0.00,JAVA,2013-04-18 16:06:00,
2013-04-18 12:11:00,80.6,70.0,30.09,East,90,0.7,2.2,69,0.00,,,0.00,JAVA,2013-04-18 16:11:00,
2013-04-18 12:16:00,81.2,70.0,30.09,North,0,1.4,3.4,69,0.00,,,0.00,JAVA,2013-04-18 16:16:00,
2013-04-18 12:22:00,81.8,70.0,30.09,East,90,1.6,3.3,69,0.00,,,0.00,JAVA,2013-04-18 16:22:00,
2013-04-18 12:27:00,82.0,70.1,30.09,ESE,112,1.2,2.8,68,0.00,,,0.00,JAVA,2013-04-18 16:27:00,
2013-04-18 12:32:00,81.4,70.2,30.09,NE,45,0.9,2.9,68,0.00,,,0.00,JAVA,2013-04-18 16:32:00,
2013-04-18 12:37:00,80.5,70.2,30.09,East,90,2.3,4.0,68,0.00,,,0.00,JAVA,2013-04-18 16:37:00,
2013-04-18 12:42:00,80.2,70.0,30.09,SE,135,0.4,3.5,68,0.00,,,0.00,JAVA,2013-04-18 16:42:00,
2013-04-18 12:47:00,80.7,70.0,30.09,ENE,67,0.8,2.1,69,0.00,,,0.00,JAVA,2013-04-18 16:47:00,
2013-04-18 12:52:00,81.4,70.0,30.09,East,90,1.4,3.5,69,0.00,,,0.00,JAVA,2013-04-18 16:52:00,
2013-04-18 12:57:00,81.4,70.1,30.09,ESE,112,0.6,2.0,69,0.00,,,0.00,JAVA,2013-04-18 16:57:00,
2013-04-18 13:02:00,80.9,70.0,30.08,NE,45,1.5,2.6,69,0.00,,,0.00,JAVA,2013-04-18 17:02:00,
2013-04-18 13:07:00,81.4,70.0,30.09,NE,45,1.9,4.8,69,0.00,,,0.00,JAVA,2013-04-18 17:07:00,
2013-04-18 13:13:00,81.7,70.0,30.08,ENE,67,1.0,2.4,69,0.00,,,0.00,JAVA,2013-04-18 17:13:00,
2013-04-18 13:18:00,82.2,70.1,30.09,SE,135,1.0,2.7,69,0.00,,,0.00,JAVA,2013-04-18 17:18:00,
2013-04-18 13:23:00,82.1,70.3,30.08,ESE,112,1.3,3.5,68,0.00,,,0.00,JAVA,2013-04-18 17:23:00,
2013-04-18 13:28:00,82.0,70.5,30.08,North,0,2.2,3.9,68,0.00,,,0.00,JAVA,2013-04-18 17:28:00,
2013-04-18 13:34:00,81.7,70.5,30.08,SE,135,1.1,4.1,68,0.00,,,0.00,JAVA,2013-04-18 17:34:00,
2013-04-18 13:39:00,82.1,70.5,30.08,SE,135,2.0,3.9,68,0.00,,,0.00,JAVA,2013-04-18 17:39:00,
2013-04-18 13:44:00,81.6,70.5,30.08,ENE,67,2.3,6.4,68,0.00,,,0.00,JAVA,2013-04-18 17:44:00,
2013-04-18 13:49:00,82.5,70.6,30.07,SE,135,0.8,2.8,68,0.00,,,0.00,JAVA,2013-04-18 17:49:00,
2013-04-18 13:54:00,82.4,70.7,30.07,East,90,2.9,4.2,67,0.00,,,0.00,JAVA,2013-04-18 17:54:00,
2013-04-18 13:59:00,81.6,70.6,30.07,East,90,3.9,5.5,67,0.00,,,0.00,JAVA,2013-04-18 17:59:00,
2013-04-18 14:05:00,81.6,70.5,30.07,ESE,112,3.0,5.2,68,0.00,,,0.00,JAVA,2013-04-18 18:05:00,
2013-04-18 14:10:00,81.5,70.4,30.06,SE,135,2.8,4.9,68,0.00,,,0.00,JAVA,2013-04-18 18:10:00,
2013-04-18 14:15:00,81.5,70.4,30.06,SE,135,1.9,5.3,68,0.00,,,0.00,JAVA,2013-04-18 18:15:00,
2013-04-18 14:20:00,81.8,70.4,30.06,ESE,112,2.5,5.6,69,0.00,,,0.00,JAVA,2013-04-18 18:20:00,
2013-04-18 14:25:00,82.5,70.5,30.06,SE,135,2.2,3.5,69,0.00,,,0.00,JAVA,2013-04-18 18:25:00,
2013-04-18 14:30:00,82.2,70.6,30.06,SE,135,2.5,4.9,69,0.00,,,0.00,JAVA,2013-04-18 18:30:00,
2013-04-18 14:35:00,82.1,70.7,30.06,East,90,2.7,6.3,69,0.00,,,0.00,JAVA,2013-04-18 18:35:00,
2013-04-18 14:40:00,82.1,70.7,30.06,NE,45,1.2,5.3,69,0.00,,,0.00,JAVA,2013-04-18 18:40:00,
2013-04-18 14:45:00,83.1,70.9,30.06,North,0,0.8,2.1,69,0.00,,,0.00,JAVA,2013-04-18 18:45:00,
2013-04-18 14:50:00,82.9,71.2,30.05,SE,135,2.0,4.8,69,0.00,,,0.00,JAVA,2013-04-18 18:50:00,
2013-04-18 14:55:00,81.4,71.3,30.05,East,90,3.2,6.0,69,0.00,,,0.00,JAVA,2013-04-18 18:55:00,
2013-04-18 15:01:00,80.4,71.2,30.06,ESE,112,4.0,6.7,69,0.00,,,0.00,JAVA,2013-04-18 19:01:00,
2013-04-18 15:06:00,80.7,71.1,30.06,ESE,112,2.9,5.4,70,0.00,,,0.00,JAVA,2013-04-18 19:06:00,
2013-04-18 15:11:00,81.3,71.0,30.05,East,90,2.5,4.4,70,0.00,,,0.00,JAVA,2013-04-18 19:11:00,
2013-04-18 15:17:00,81.4,71.0,30.05,NNE,22,2.0,4.7,70,0.00,,,0.00,JAVA,2013-04-18 19:17:00,
2013-04-18 15:22:00,81.8,71.0,30.05,East,90,2.3,3.2,71,0.00,,,0.00,JAVA,2013-04-18 19:22:00,
2013-04-18 15:28:00,81.8,71.0,30.05,East,90,3.0,4.7,71,0.00,,,0.00,JAVA,2013-04-18 19:28:00,
2013-04-18 15:33:00,80.8,70.8,30.05,ESE,112,4.6,7.8,71,0.00,,,0.00,JAVA,2013-04-18 19:33:00,
2013-04-18 15:38:00,80.7,70.8,30.05,East,90,4.2,6.0,72,0.00,,,0.00,JAVA,2013-04-18 19:38:00,
2013-04-18 15:43:00,80.7,70.9,30.05,SE,135,2.7,7.7,72,0.00,,,0.00,JAVA,2013-04-18 19:43:00,
2013-04-18 15:48:00,80.0,71.0,30.05,ESE,112,5.0,7.4,72,0.00,,,0.00,JAVA,2013-04-18 19:48:00,
2013-04-18 15:53:00,79.9,71.0,30.05,SE,135,3.4,5.5,72,0.00,,,0.00,JAVA,2013-04-18 19:53:00,
2013-04-18 15:58:00,79.8,70.9,30.04,East,90,4.3,7.4,72,0.00,,,0.00,JAVA,2013-04-18 19:58:00,
2013-04-18 16:03:00,79.8,70.8,30.04,SE,135,4.6,6.3,72,0.00,,,0.00,JAVA,2013-04-18 20:03:00,
2013-04-18 16:08:00,80.3,70.6,30.04,SSE,157,4.1,7.2,72,0.00,,,0.00,JAVA,2013-04-18 20:08:00,
2013-04-18 16:14:00,80.6,70.6,30.04,SE,135,3.6,6.8,73,0.00,,,0.00,JAVA,2013-04-18 20:14:00,
2013-04-18 16:19:00,80.4,70.6,30.04,SE,135,5.5,8.3,73,0.00,,,0.00,JAVA,2013-04-18 20:19:00,
2013-04-18 16:24:00,80.5,70.7,30.03,ESE,112,4.5,6.9,73,0.00,,,0.00,JAVA,2013-04-18 20:24:00,
2013-04-18 16:29:00,80.6,70.7,30.03,ESE,112,3.8,8.2,73,0.00,,,0.00,JAVA,2013-04-18 20:29:00,
2013-04-18 16:34:00,80.9,70.9,30.03,SE,135,3.3,7.4,73,0.00,,,0.00,JAVA,2013-04-18 20:34:00,
2013-04-18 16:39:00,80.9,71.1,30.03,East,90,2.7,5.7,73,0.00,,,0.00,JAVA,2013-04-18 20:39:00,
2013-04-18 16:44:00,80.9,71.3,30.03,East,90,3.7,5.9,73,0.00,,,0.00,JAVA,2013-04-18 20:44:00,
2013-04-18 16:49:00,80.7,71.4,30.03,SSE,157,3.0,6.3,73,0.00,,,0.00,JAVA,2013-04-18 20:49:00,
2013-04-18 16:54:00,80.6,71.4,30.02,SE,135,3.3,7.2,72,0.00,,,0.00,JAVA,2013-04-18 20:54:00,
2013-04-18 16:59:00,80.5,71.4,30.03,East,90,3.9,7.3,73,0.00,,,0.00,JAVA,2013-04-18 20:59:00,
2013-04-18 17:04:00,80.7,71.4,30.03,SSE,157,2.3,4.4,72,0.00,,,0.00,JAVA,2013-04-18 21:04:00,
2013-04-18 17:09:00,80.7,71.4,30.03,ESE,112,4.2,6.5,72,0.00,,,0.00,JAVA,2013-04-18 21:09:00,
2013-04-18 17:15:00,80.5,71.4,30.03,NE,45,3.1,5.0,72,0.00,,,0.00,JAVA,2013-04-18 21:15:00,
2013-04-18 17:20:00,80.2,71.3,30.03,ESE,112,3.7,6.1,72,0.00,,,0.00,JAVA,2013-04-18 21:20:00,
2013-04-18 17:25:00,80.2,71.2,30.03,East,90,2.9,5.3,73,0.00,,,0.00,JAVA,2013-04-18 21:25:00,
2013-04-18 17:30:00,80.3,71.1,30.03,ESE,112,3.3,5.7,73,0.00,,,0.00,JAVA,2013-04-18 21:30:00,
2013-04-18 17:35:00,80.0,71.0,30.04,East,90,3.4,6.0,73,0.00,,,0.00,JAVA,2013-04-18 21:35:00,
2013-04-18 17:40:00,80.0,71.0,30.03,SE,135,3.9,5.9,73,0.00,,,0.00,JAVA,2013-04-18 21:40:00,
2013-04-18 17:45:00,80.0,70.9,30.03,ESE,112,3.1,5.9,73,0.00,,,0.00,JAVA,2013-04-18 21:45:00,
2013-04-18 17:50:00,80.2,70.9,30.03,East,90,1.9,3.2,73,0.00,,,0.00,JAVA,2013-04-18 21:50:00,
2013-04-18 17:55:00,80.4,70.9,30.03,SE,135,1.9,5.8,74,0.00,,,0.00,JAVA,2013-04-18 21:55:00,
2013-04-18 18:00:00,80.3,71.0,30.03,East,90,1.9,4.1,74,0.00,,,0.00,JAVA,2013-04-18 22:00:00,
2013-04-18 18:05:00,79.7,71.0,30.03,SSE,157,3.7,5.6,74,0.00,,,0.00,JAVA,2013-04-18 22:05:00,
2013-04-18 18:10:00,79.4,71.0,30.03,SE,135,2.6,4.9,74,0.00,,,0.00,JAVA,2013-04-18 22:10:00,
2013-04-18 18:15:00,78.7,71.0,30.03,East,90,3.6,6.4,75,0.00,,,0.00,JAVA,2013-04-18 22:15:00,
2013-04-18 18:21:00,78.5,70.9,30.03,SE,135,2.2,5.2,75,0.00,,,0.00,JAVA,2013-04-18 22:21:00,
2013-04-18 18:26:00,78.2,70.8,30.03,ESE,112,2.4,4.1,76,0.00,,,0.00,JAVA,2013-04-18 22:26:00,
2013-04-18 18:31:00,78.0,70.8,30.03,SE,135,2.9,5.0,76,0.00,,,0.00,JAVA,2013-04-18 22:31:00,
2013-04-18 18:36:00,77.9,70.6,30.04,ESE,112,2.5,4.5,77,0.00,,,0.00,JAVA,2013-04-18 22:36:00,
2013-04-18 18:41:00,77.8,70.5,30.03,ESE,112,2.8,4.3,78,0.00,,,0.00,JAVA,2013-04-18 22:41:00,
2013-04-18 18:46:00,77.7,70.4,30.03,East,90,3.4,5.0,78,0.00,,,0.00,JAVA,2013-04-18 22:46:00,
2013-04-18 18:51:00,77.6,70.4,30.03,East,90,2.7,5.7,79,0.00,,,0.00,JAVA,2013-04-18 22:51:00,
2013-04-18 18:56:00,77.6,70.4,30.03,SE,135,2.5,4.9,80,0.00,,,0.00,JAVA,2013-04-18 22:56:00,
2013-04-18 19:01:00,77.6,70.5,30.04,East,90,1.8,4.5,80,0.00,,,0.00,JAVA,2013-04-18 23:01:00,
2013-04-18 19:07:00,77.6,70.7,30.03,South,180,1.6,3.5,81,0.00,,,0.00,JAVA,2013-04-18 23:07:00,
2013-04-18 19:12:00,77.6,70.8,30.04,SE,135,1.3,3.6,81,0.00,,,0.00,JAVA,2013-04-18 23:12:00,
2013-04-18 19:17:00,77.6,70.9,30.04,SSE,157,1.0,2.8,81,0.00,,,0.00,JAVA,2013-04-18 23:17:00,
2013-04-18 19:22:00,77.6,71.1,30.04,South,180,1.3,3.3,81,0.00,,,0.00,JAVA,2013-04-18 23:22:00,
2013-04-18 19:27:00,77.6,71.2,30.04,East,90,1.3,2.9,81,0.00,,,0.00,JAVA,2013-04-18 23:27:00,
2013-04-18 19:32:00,77.4,71.3,30.04,ESE,112,2.5,4.7,82,0.00,,,0.00,JAVA,2013-04-18 23:32:00,
2013-04-18 19:37:00,77.4,71.4,30.04,SE,135,1.3,3.2,82,0.00,,,0.00,JAVA,2013-04-18 23:37:00,
2013-04-18 19:42:00,77.3,71.5,30.04,SE,135,2.4,5.0,82,0.00,,,0.00,JAVA,2013-04-18 23:42:00,
2013-04-18 19:47:00,77.3,71.6,30.04,East,90,1.2,3.1,82,0.00,,,0.00,JAVA,2013-04-18 23:47:00,
2013-04-18 19:52:00,77.2,71.6,30.04,SE,135,1.0,3.9,82,0.00,,,0.00,JAVA,2013-04-18 23:52:00,
2013-04-18 19:57:00,77.2,71.6,30.04,East,90,1.5,4.7,82,0.00,,,0.00,JAVA,2013-04-18 23:57:00,
2013-04-18 20:02:00,77.2,71.6,30.04,South,180,1.5,2.9,82,0.00,,,0.00,JAVA,2013-04-19 00:02:00,
2013-04-18 20:08:00,77.3,71.6,30.04,East,90,1.6,3.8,82,0.00,,,0.00,JAVA,2013-04-19 00:08:00,
2013-04-18 20:13:00,77.3,71.6,30.04,ENE,67,1.4,3.3,82,0.00,,,0.00,JAVA,2013-04-19 00:13:00,
2013-04-18 20:18:00,77.2,71.5,30.04,SE,135,3.0,5.7,82,0.00,,,0.00,JAVA,2013-04-19 00:18:00,
2013-04-18 20:23:00,77.4,71.5,30.03,SE,135,2.8,5.0,81,0.00,,,0.00,JAVA,2013-04-19 00:23:00,
2013-04-18 20:28:00,77.4,71.5,30.04,SE,135,3.0,6.7,81,0.00,,,0.00,JAVA,2013-04-19 00:28:00,
2013-04-18 20:33:00,77.3,71.4,30.04,SE,135,3.3,5.0,81,0.00,,,0.00,JAVA,2013-04-19 00:33:00,
2013-04-18 20:38:00,77.2,71.4,30.04,SE,135,3.0,5.8,82,0.00,,,0.00,JAVA,2013-04-19 00:38:00,
2013-04-18 20:43:00,77.0,71.4,30.04,ENE,67,2.8,5.2,82,0.00,,,0.00,JAVA,2013-04-19 00:43:00,
2013-04-18 20:48:00,76.8,71.4,30.04,ESE,112,3.6,6.1,82,0.00,,,0.00,JAVA,2013-04-19 00:48:00,
2013-04-18 20:53:00,76.7,71.3,30.04,East,90,3.2,4.8,83,0.00,,,0.00,JAVA,2013-04-19 00:53:00,
2013-04-18 20:58:00,76.7,71.3,30.04,SE,135,2.9,5.4,83,0.00,,,0.00,JAVA,2013-04-19 00:58:00,
2013-04-18 21:03:00,76.6,71.3,30.04,SE,135,3.4,5.6,84,0.00,,,0.00,JAVA,2013-04-19 01:03:00,
2013-04-18 21:08:00,76.4,71.3,30.04,ESE,112,2.9,5.1,85,0.00,,,0.00,JAVA,2013-04-19 01:08:00,
2013-04-18 21:13:00,76.3,71.4,30.04,SE,135,3.2,4.8,85,0.00,,,0.00,JAVA,2013-04-19 01:13:00,
2013-04-18 21:19:00,76.3,71.4,30.05,East,90,2.6,4.6,86,0.00,,,0.00,JAVA,2013-04-19 01:19:00,
2013-04-18 21:24:00,76.3,71.5,30.05,ESE,112,2.0,3.5,86,0.00,,,0.00,JAVA,2013-04-19 01:24:00,
2013-04-18 21:29:00,76.2,71.5,30.05,ENE,67,2.3,4.5,86,0.00,,,0.00,JAVA,2013-04-19 01:29:00,
2013-04-18 21:34:00,76.2,71.6,30.05,SE,135,2.3,4.5,86,0.00,,,0.00,JAVA,2013-04-19 01:34:00,
2013-04-18 21:39:00,76.2,71.7,30.05,SSE,157,1.5,3.7,87,0.00,,,0.00,JAVA,2013-04-19 01:39:00,
2013-04-18 21:44:00,76.2,71.8,30.05,SE,135,2.2,4.5,87,0.00,,,0.00,JAVA,2013-04-19 01:44:00,
2013-04-18 21:49:00,76.2,71.9,30.05,SSE,157,2.2,5.1,87,0.00,,,0.00,JAVA,2013-04-19 01:49:00,
2013-04-18 21:54:00,76.2,71.9,30.05,ESE,112,2.4,5.0,87,0.00,,,0.00,JAVA,2013-04-19 01:54:00,
2013-04-18 21:59:00,76.2,71.9,30.06,ENE,67,1.9,4.0,87,0.00,,,0.00,JAVA,2013-04-19 01:59:00,
2013-04-18 22:04:00,76.1,72.0,30.05,SE,135,1.9,3.4,87,0.00,,,0.00,JAVA,2013-04-19 02:04:00,
2013-04-18 22:09:00,76.1,72.0,30.05,ESE,112,1.5,3.8,87,0.00,,,0.00,JAVA,2013-04-19 02:09:00,
2013-04-18 22:14:00,76.0,72.0,30.06,East,90,1.0,3.0,87,0.00,,,0.00,JAVA,2013-04-19 02:14:00,
2013-04-18 22:19:00,76.1,71.9,30.05,ESE,112,1.4,3.4,86,0.00,,,0.00,JAVA,2013-04-19 02:19:00,
2013-04-18 22:24:00,76.1,71.9,30.06,SE,135,0.8,2.8,86,0.00,,,0.00,JAVA,2013-04-19 02:24:00,
2013-04-18 22:29:00,76.0,71.9,30.06,SSE,157,0.6,1.7,86,0.00,,,0.00,JAVA,2013-04-19 02:29:00,
2013-04-18 22:35:00,76.0,71.9,30.07,East,90,1.5,5.1,87,0.00,,,0.00,JAVA,2013-04-19 02:35:00,
2013-04-18 22:40:00,76.1,71.9,30.07,SE,135,0.6,2.7,87,0.00,,,0.00,JAVA,2013-04-19 02:40:00,
2013-04-18 22:45:00,76.1,71.9,30.07,SE,135,0.9,2.7,87,0.00,,,0.00,JAVA,2013-04-19 02:45:00,
2013-04-18 22:50:00,76.1,71.9,30.07,East,90,0.7,3.3,87,0.00,,,0.00,JAVA,2013-04-19 02:50:00,
2013-04-18 22:55:00,76.0,71.9,30.07,ESE,112,0.7,2.5,87,0.00,,,0.00,JAVA,2013-04-19 02:55:00,
2013-04-18 23:01:00,76.0,72.0,30.06,East,90,0.4,1.5,87,0.00,,,0.00,JAVA,2013-04-19 03:01:00,
2013-04-18 23:06:00,75.9,72.0,30.07,SE,135,0.8,2.3,88,0.00,,,0.00,JAVA,2013-04-19 03:06:00,
2013-04-18 23:11:00,75.8,72.0,30.06,East,90,1.2,4.1,88,0.00,,,0.00,JAVA,2013-04-19 03:11:00,
2013-04-18 23:16:00,75.7,72.0,30.06,East,90,2.3,4.4,87,0.00,,,0.00,JAVA,2013-04-19 03:16:00,
2013-04-18 23:21:00,75.7,72.0,30.06,East,90,1.4,2.5,87,0.00,,,0.00,JAVA,2013-04-19 03:21:00,
2013-04-18 23:26:00,75.7,72.0,30.06,WSW,247,1.3,2.6,87,0.00,,,0.00,JAVA,2013-04-19 03:26:00,
2013-04-18 23:31:00,75.7,71.9,30.06,East,90,1.4,4.2,87,0.00,,,0.00,JAVA,2013-04-19 03:31:00,
2013-04-18 23:36:00,75.7,71.8,30.07,East,90,1.2,3.8,87,0.00,,,0.00,JAVA,2013-04-19 03:36:00,
2013-04-18 23:41:00,75.7,71.8,30.07,East,90,1.1,2.9,86,0.00,,,0.00,JAVA,2013-04-19 03:41:00,
2013-04-18 23:46:00,75.8,71.7,30.06,SE,135,0.8,2.5,86,0.00,,,0.00,JAVA,2013-04-19 03:46:00,
2013-04-18 23:51:00,75.8,71.6,30.07,East,90,0.5,1.9,86,0.00,,,0.00,JAVA,2013-04-19 03:51:00,
2013-04-18 23:56:00,75.8,71.5,30.07,ESE,112,0.7,1.8,86,0.00,,,0.00,JAVA,2013-04-19 03:56:00,